metlocid,date_time,avg_rh,std_rh,min_rh,max_rh,n_rh,n_comments
HOEM,11/1/87,45.70087341,6.982603581,26.8,63.1,229,0
HOEM,12/1/87,52.93145164,12.63621885,27.4,78.8,372,0
HOEM,1/1/88,58.40618282,11.21148282,27.2,85,372,0
HOEM,2/1/88,60.86522975,14.64231637,23.6,88.2,348,0
HOEM,3/1/88,71.00645157,12.86566131,32.2,87.7,372,0
HOEM,4/1/88,71.90138893,13.58970495,31.8,87.6,360,0
HOEM,5/1/88,66.39005376,16.4593326,34.4,86.5,372,0
HOEM,6/1/88,60.4969445,16.3417035,25,80.9,360,0
HOEM,7/1/88,61.50000003,13.27483479,23.7,79,372,0
HOEM,8/1/88,53.63333322,17.36192865,27,78.3,372,0
HOEM,9/1/88,63.3433333,13.62230513,25.2,78.2,360,0
HOEM,10/1/88,55.43198926,13.92160669,22.9,74.9,372,0
HOEM,11/1/88,57.5655556,8.37414999,24.5,72.9,360,0
HOEM,12/1/88,55.07304354,7.709550897,26.9,69.9,230,0
HOEM,1/1/89,59.47903223,6.800837778,33.5,70.2,186,0
HOEM,2/1/89,60.28571415,5.204457908,43.7,69.6,168,0
HOEM,3/1/89,57.84032266,6.130282627,32.2,65.3,186,0
HOEM,4/1/89,57.65000002,8.50147877,34.4,68.6,180,0
HOEM,5/1/89,57.94193534,6.161525231,43.2,66.5,186,0
HOEM,6/1/89,58.45999997,4.345210004,44.2,62.8,180,0
HOEM,7/1/89,55.03548382,7.32666565,37.4,65,186,0
HOEM,8/1/89,56.82688171,6.490302823,29.4,64.6,186,0
HOEM,9/1/89,55.07333349,8.619107083,33.9,65.8,180,0
HOEM,10/1/89,51.89784934,8.533355412,32.2,65.7,186,0
HOEM,11/1/89,54.06166672,6.081708876,39.1,65.8,180,0
HOEM,12/1/89,56.61290327,5.909922495,40.6,66.9,186,0
HOEM,1/1/90,57.44946232,5.373551209,44.4,66.5,186,0
HOEM,2/1/90,58.82559517,5.623549734,44.5,68.8,168,0
HOEM,3/1/90,58.90215057,6.699115989,31.5,68.3,186,0
HOEM,4/1/90,55.94333339,5.911517967,44.6,63.3,180,0
HOEM,5/1/90,59.38010765,4.648415343,44.5,63.9,186,0
HOEM,6/1/90,55.96444448,5.468749425,41.5,62.1,180,0
HOEM,7/1/90,59.38709682,3.931651948,35.6,62.5,186,0
HOEM,8/1/90,56.55860218,6.511673985,37.8,62.3,186,0
HOEM,9/1/90,56.09499993,7.019750774,34.7,62.1,180,0
HOEM,10/1/90,54.10806444,6.206778216,29.6,62.5,186,0
HOEM,11/1/90,50.95388881,5.371426205,35.5,62.8,180,0
HOEM,12/1/90,49.9580645,5.889731356,33.5,61.9,186,0
HOEM,1/1/91,50.95967746,5.738531425,32.3,61.1,186,0
HOEM,2/1/91,49.93214289,5.479076339,35.8,58.2,168,0
HOEM,3/1/91,50.34086033,5.445736905,34,58.6,186,0
HOEM,4/1/91,53.43611113,5.360071217,42.2,59.8,180,0
HOEM,5/1/91,52.17311828,5.990652845,38.3,59.2,186,0
HOEM,6/1/91,51.40055567,4.952145381,38.6,57.8,180,0
HOEM,7/1/91,51.14569894,4.180302363,38.4,57.3,186,0
HOEM,8/1/91,50.08763424,4.344155257,39.8,55.4,186,0
HOEM,9/1/91,44.86833335,6.106882981,33.8,54.3,180,0
HOEM,10/1/91,47.40806454,5.978609613,32.3,57,186,0
HOEM,11/1/91,39.06444443,5.624682493,29,53.7,180,0
HOEM,12/1/91,41.78763436,5.237103324,27,52.7,186,0
HOEM,1/1/92,44.72204295,7.180845279,25.2,53.9,186,0
HOEM,2/1/92,46.69425273,5.310461991,29.2,56.3,174,0
HOEM,3/1/92,46.50913981,7.811894742,25.8,57.1,186,0
HOEM,4/1/92,46.88055562,3.636685998,37,52.6,180,0
HOEM,5/1/92,42.25053754,2.976198376,31.3,46.2,186,0
HOEM,6/1/92,38.6794445,3.533284646,29.9,43.4,180,0
HOEM,7/1/92,38.30161288,4.766442106,25.1,45.3,186,0
HOEM,8/1/92,37.66397855,5.07437059,24.7,45,186,0
HOEM,9/1/92,35.91833336,5.45419193,21.8,46.6,180,0
HOEM,10/1/92,37.93440865,4.489398763,26.8,47.6,186,0
HOEM,11/1/92,31.87777772,4.147645811,21.7,43.1,180,0
HOEM,12/1/92,55.36918926,23.68717704,25.9,102.7,185,0
HOEM,1/1/93,81.12849455,14.96540122,28,101.1,186,0
HOEM,2/1/93,78.86785709,13.83685232,42.2,97.6,168,0
HOEM,3/1/93,70.4494624,13.6783681,40.6,94.2,186,0
HOEM,4/1/93,56.3611109,10.35132771,36.5,75.7,180,0
HOEM,5/1/93,53.04516124,5.354695225,35.9,59.3,186,0
HOEM,6/1/93,47.36388889,7.84505522,31.2,59.3,180,0
HOEM,7/1/93,45.16827955,8.913858912,28.8,57.1,186,0
HOEM,8/1/93,45.69623671,6.567869233,26.6,55.4,186,0
HOEM,9/1/93,46.60333323,6.883604683,27.4,55.1,180,0
HOEM,10/1/93,42.52365589,7.093558481,26.1,53.2,186,0
HOEM,11/1/93,44.69388889,4.826314695,30.2,52.1,180,0
HOEM,12/1/93,71.59599263,15.87656924,25.2,96.64,1909,0
HOEM,1/1/94,62.83566275,14.55820834,30.4,93.84,2414,0
HOEM,2/1/94,78.62781244,14.8398255,43.71,99.99,224,4
HOEM,3/1/94,78.88145142,13.32678555,36.21,95.95,248,0
HOEM,4/1/94,76.64629162,17.71272579,30.78,99.99,240,1
HOEM,5/1/94,77.69883057,14.42279856,34.94,95.71,248,0
HOEM,6/1/94,69.0359583,19.43011035,30.87,97.49,240,0
HOEM,7/1/94,71.07495953,17.68364459,22.52,96.81,248,0
HOEM,8/1/94,70.11028222,16.4110569,30.58,90.2,248,0
HOEM,9/1/94,72.29612493,12.57255222,27.5,86.7,240,0
HOEM,10/1/94,72.49854814,18.46122098,28.18,97.47,248,0
HOEM,11/1/94,74.92170949,10.94495885,30.2,92.77,1012,0
HOEM,12/1/94,65.38915315,15.31520807,30.3,97.64,2232,0
HOEM,1/1/95,70.1057559,12.93613231,26.1,96.58,2229,643
HOEM,2/1/95,67.06225693,22.38768241,19.24,100,2016,2016
HOEM,3/1/95,78.94199374,13.95457992,33.41,98.8,2232,2232
HOEM,4/1/95,78.26974069,17.82298927,32.42,96.69,2160,2160
HOEM,5/1/95,75.0567115,18.80932914,28.92,94.5,2232,2232
HOEM,6/1/95,65.47170368,20.57176503,25.43,93.82,2160,2160
HOEM,7/1/95,72.41060032,16.38351613,26.1,95.17,2232,2232
HOEM,8/1/95,63.52914424,20.21838185,24.3,90.35,2232,2232
HOEM,9/1/95,68.59731014,17.9670585,26.03,92.37,2160,2160
HOEM,10/1/95,62.70230284,16.15344121,28.3,94.76,2232,2232
HOEM,11/1/95,48.6498242,16.27739542,20.36,93.56,1991,1991
HOEM,1/1/96,40.77213334,14.72237884,23.33,86.45,675,675
HOEM,2/1/96,61.7430819,13.33578767,26.82,95.05,2784,2784
HOEM,3/1/96,74.22357863,21.58780853,19.95,97.85,2976,2976
HOEM,4/1/96,73.15014582,21.71603044,25.87,99.32,2880,2880
HOEM,5/1/96,75.20272851,16.04552063,29.8,93.96,2976,2976
HOEM,6/1/96,69.95142712,19.30914336,26.67,90.12,2880,2880
HOEM,7/1/96,59.94555783,18.92229751,26.36,87.4,2976,2976
HOEM,8/1/96,62.81061491,20.67169208,23.14,92.22,2976,2976
HOEM,9/1/96,69.35086807,17.02170632,31.13,91.91,2880,2880
HOEM,10/1/96,64.54551077,16.05160261,28.03,90.59,2976,2976
HOEM,11/1/96,57.61479167,15.73233768,18.29,96.51,2880,2880
HOEM,12/1/96,58.21623658,15.13552151,22.8,100,2976,2976
HOEM,1/1/97,69.20870881,15.97844711,24.04,100,2974,2974
HOEM,2/1/97,65.38240329,16.71394717,25.02,95.52,2688,2688
HOEM,3/1/97,77.36148854,12.67680924,29.92,93.53,2976,2976
HOEM,4/1/97,75.7110243,15.85023426,28.67,95.61,2880,2880
HOEM,5/1/97,59.51043422,21.55102524,23.82,93.2,2948,2948
HOEM,6/1/97,63.63865279,23.33371403,25.91,93.23,2880,2880
HOEM,7/1/97,63.40057668,16.29469472,30.84,91.74,2948,2948
HOEM,8/1/97,65.89653231,14.58297448,28.78,88.18,2976,2976
HOEM,9/1/97,65.12986112,17.11343482,25.17,96.98,2880,2880
HOEM,10/1/97,60.09621636,21.64803844,24.63,95.77,2976,2976
HOEM,11/1/97,51.97705287,20.82059546,21.17,98.95,2874,2874
HOEM,12/1/97,75.36418685,12.91115909,31.09,99.46,2976,2976
HOEM,1/1/98,74.95727823,13.79809078,28.31,98.8,2976,2976
HOEM,2/1/98,75.83556919,18.80263202,31.38,100,2688,2688
HOEM,3/1/98,75.46780534,17.00904412,36.21,97.71,2948,2948
HOEM,4/1/98,73.45933329,17.93242015,27.25,94.47,2880,2880
HOEM,5/1/98,72.03577623,19.39514133,27.63,94.75,2976,2976
HOEM,6/1/98,67.80252783,22.53742663,24.71,99.01,2880,2880
HOEM,7/1/98,69.40190184,20.04394026,26.51,95.17,2976,2976
HOEM,8/1/98,69.12447246,17.69862849,27.23,85.85,2976,2976
HOEM,9/1/98,75.37245146,10.46320327,29.35,86.54,2880,2880
HOEM,10/1/98,63.40977818,19.24077549,22.26,94.99,2976,2976
HOEM,11/1/98,59.43143052,13.788878,27.13,92.43,2880,2880
HOEM,12/1/98,60.28262434,17.27899038,20.27,88.59,2976,2976
HOEM,1/1/99,68.13935491,15.58042606,25.24,95.67,2976,2976
HOEM,2/1/99,71.28711306,16.02098793,23.84,96.79,2688,2688
HOEM,3/1/99,73.13259067,15.57314876,30.28,98.2,2976,2976
HOEM,4/1/99,74.49899656,13.09807746,30.4,91.84,2880,2880
HOEM,5/1/99,69.50815194,16.77551746,29.56,94.42,2976,2976
HOEM,6/1/99,74.14428471,20.96076566,27.12,97.6,2880,2880
HOEM,7/1/99,65.13537972,21.62970989,27.68,96.56,2976,2976
HOEM,8/1/99,69.75352486,17.31015256,30.15,92.62,2976,2976
HOEM,9/1/99,71.71382296,20.73427638,25.54,94.99,2880,2880
HOEM,10/1/99,63.18382187,20.50298753,22.61,96.43,2975,2975
HOEM,11/1/99,61.56143056,17.79853929,22.57,95.59,2880,2880
HOEM,12/1/99,59.83133734,15.4484055,20.34,95.24,2976,2976
HOEM,1/1/00,64.55647848,16.4550496,19.72,98.25,2976,2976
HOEM,2/1/00,65.23968746,20.36981925,15.14,100,2784,2784
HOEM,3/1/00,76.34061822,23.35470533,22.76,100,2976,2976
HOEM,4/1/00,77.08440618,22.18238308,26.53,100,2880,2880
HOEM,5/1/00,81.74764109,19.87810135,24.81,100,2976,2976
HOEM,6/1/00,78.49229515,21.13313456,22.15,100,2880,2880
HOEM,7/1/00,62.29713714,30.12005532,15.33,100,2976,2976
HOEM,8/1/00,65.28435208,27.39094258,12.66,100,2948,2948
HOEM,9/1/00,70.92431942,25.11716393,9.15,100,2880,2880
HOEM,10/1/00,76.16468754,18.7430293,21.19,100,2976,2976
HOEM,11/1/00,60.3806984,23.06597129,20.4,100,2878,2878
HOEM,12/1/00,68.35211354,14.00872008,23.13,96.15,2976,2976
HOEM,1/1/01,74.01858201,13.62721037,25.17,100,2976,2976
HOEM,2/1/01,67.58502232,19.59555841,14.5,100,2688,2688
HOEM,3/1/01,81.73232865,17.9775752,11.71,100,2976,2976
HOEM,4/1/01,80.27819094,22.95568346,17.26,100,2880,2880
HOEM,5/1/01,71.23380713,26.85814948,12.05,100,2976,2976
HOEM,6/1/01,71.57419796,24.80584934,20.87,100,2880,2880
HOEM,7/1/01,67.8739953,25.39956403,18.52,100,2976,2976
HOEM,8/1/01,81.52642805,17.82402768,23.68,100,2976,2976
HOEM,9/1/01,75.70593053,21.92353769,13.98,100,2880,2880
HOEM,10/1/01,60.04096105,22.84830531,19.23,100,2976,2976
HOEM,11/1/01,56.60452082,15.7119215,15.48,97.73,2880,2880
HOEM,12/1/01,55.74273523,15.78604459,16.49,94.98,2976,2976
HOEM,1/1/02,67.523305,22.86001266,14.89,100,2947,2947
HOEM,2/1/02,65.97237355,19.17098086,19.15,100,2688,2688
HOEM,3/1/02,74.15400203,23.68303144,19.03,100,2976,2976
HOEM,4/1/02,72.2788611,27.43731159,19.74,100,2880,2880
HOEM,5/1/02,70.62527217,25.14308655,17.52,100,2976,2976
HOEM,6/1/02,80.13062153,20.73627615,11.91,100,2880,2880
HOEM,7/1/02,73.84786625,23.42959384,13.72,99.71,2976,2976
HOEM,8/1/02,77.66797381,22.21836067,24.69,100,2976,2976
HOEM,9/1/02,80.62712847,21.57510948,20.02,100,2880,2880
HOEM,10/1/02,79.05840386,19.75277561,23.77,100,2976,2976
HOEM,11/1/02,72.4438298,20.19684469,12.12,100,2880,2880
HOEM,12/1/02,72.3033871,15.78142765,23.84,100,2976,2976
HOEM,1/1/03,72.80008399,14.45885767,29.5,100,2976,2976
HOEM,2/1/03,74.1939435,15.23849359,31.37,100,2688,2688
HOEM,3/1/03,80.45223457,21.55889314,27.07,100,2976,2976
HOEM,4/1/03,88.80088898,15.9658096,29.15,100,2880,2880
HOEM,5/1/03,64.57374997,28.36221947,14.75,100,2976,2976
HOEM,6/1/03,79.56395139,22.11745356,13.84,100,2880,2880
HOEM,7/1/03,62.79710009,25.60065349,19.32,100,2976,2976
HOEM,8/1/03,82.20539985,18.07832514,13.39,100,2976,2976
HOEM,9/1/03,75.74025696,24.73745906,10.77,100,2880,2880
HOEM,10/1/03,59.76343747,24.34826291,14.46,100,2976,2976
HOEM,11/1/03,62.368434,15.75952236,24.41,100,2880,2880
HOEM,12/1/03,62.93559143,18.98431447,19.23,100,2976,2976
HOEM,1/1/04,74.59553946,12.08562695,32.31,98.54,2975,2975
HOEM,2/1/04,71.78932106,16.35957119,30.32,100,2784,2784
HOEM,3/1/04,85.61518811,14.41374218,36.16,100,2976,2976
HOEM,4/1/04,84.41309722,19.21515921,25.76,100,2880,2880
HOEM,5/1/04,71.64040995,24.2677287,19.68,100,2976,2976
HOEM,6/1/04,67.90819441,28.54940748,11.98,100,2880,2880
HOEM,7/1/04,73.51945232,22.59324237,10.15,98.51,2976,2976
HOEM,8/1/04,71.77575606,26.3961987,12,100,2976,2976
HOEM,9/1/04,85.4080139,18.88516309,21.59,100,2880,2880
HOEM,10/1/04,70.86322247,20.88511849,20.81,100,2976,2976
HOEM,11/1/04,60.10781943,18.41375998,19.23,98.99,2880,2880
HOEM,12/1/04,66.78099462,16.82900009,25.12,99.94,2976,2976
HOEM,1/1/05,75.75083669,13.08047794,23.35,100,2976,2976
HOEM,2/1/05,72.79087423,19.94701526,21.49,100,2688,2688
HOEM,3/1/05,78.5126848,19.68106283,28.87,100,2976,2976
HOEM,4/1/05,90.79009375,13.2132164,28.21,100,2880,2880
HOEM,5/1/05,76.63116596,25.62294118,23.4,100,2976,2976
HOEM,6/1/05,78.11093056,24.01052557,18,100,2880,2880
HOEM,7/1/05,79.70824263,22.43739277,17.92,100,2976,2976
HOEM,8/1/05,77.11464041,23.66092218,15.87,100,2976,2976
HOEM,9/1/05,73.21740973,21.62144204,13.01,100,2880,2880
HOEM,10/1/05,65.42287973,24.69240097,12.95,100,2976,2976
HOEM,11/1/05,65.08328126,17.56955454,24.03,98.2,2880,2880
HOEM,12/1/05,69.07555446,16.21448068,24.05,100,2976,2976
HOEM,1/1/06,70.10861222,14.88955493,16.34,100,2976,2976
HOEM,2/1/06,74.03435641,16.94007883,26.36,100,2688,2688
HOEM,3/1/06,80.79011083,18.81491884,22.36,100,2976,2976
HOEM,4/1/06,81.5814791,17.25925187,23.55,100,2880,2880
HOEM,5/1/06,76.1032258,21.38017476,11.25,100,2976,2976
HOEM,6/1/06,69.81265622,23.67714277,22.98,100,2880,2880
HOEM,7/1/06,78.83880715,16.8782539,18.55,100,2976,2976
HOEM,8/1/06,72.24277891,25.58860529,20.29,100,2976,2976
HOEM,9/1/06,73.09360416,25.00556721,26.37,100,2880,2880
HOEM,10/1/06,76.31808464,17.50485038,21.43,100,2976,2976
HOEM,11/1/06,65.27485416,14.90829434,25.8,100,2880,2880
HOEM,12/1/06,63.00306448,17.30181255,20.23,95.49,2976,2976
HOEM,1/1/07,61.51176409,15.17631672,19.82,100,2976,2976
HOEM,2/1/07,74.88048728,17.18537116,29.72,100,2688,2688
HOEM,3/1/07,77.53694897,21.85192075,14.49,100,2976,2976
HOEM,4/1/07,75.9351146,22.67423443,20.88,100,2880,2880
HOEM,5/1/07,72.60309474,25.57457387,12.39,100,2976,2976
HOEM,6/1/07,65.49828474,25.41382223,11.17,100,2880,2880
HOEM,7/1/07,62.82535627,26.83107324,11.74,100,2976,2976
HOEM,8/1/07,63.95159275,25.70260401,15.42,100,2976,2976
HOEM,9/1/07,65.81265978,26.26851953,16.7,100,2880,2880
HOEM,10/1/07,75.97752348,19.96764597,13.81,100,2976,2976
HOEM,11/1/07,67.53343748,16.55897956,22.28,100,2880,2880
HOEM,12/1/07,59.21318991,19.30300444,15.74,96.53,2975,2975
HOEM,1/1/08,66.21878694,13.39762027,24.87,95.86,2976,2976
HOEM,2/1/08,67.01386861,16.88755817,26.57,97.48,2784,2784
HOEM,3/1/08,81.20345427,17.97029157,15.42,100,2976,2976
HOEM,4/1/08,75.25828473,23.81075298,16.94,100,2880,2880
HOEM,5/1/08,72.32306453,23.73295436,20.81,100,2976,2976
HOEM,6/1/08,67.86649654,26.49678684,19.22,100,2880,2880
HOEM,7/1/08,73.76456314,22.0054971,12.42,98.43,2976,2976
HOEM,8/1/08,76.91613909,17.97512838,16.88,98.08,2976,2976
HOEM,9/1/08,54.2844653,27.18162233,15.29,100,2880,2880
HOEM,10/1/08,78.11336016,18.21473371,19.13,100,2976,2976
HOEM,11/1/08,63.34918746,19.58555146,11.11,100,2880,2880
HOEM,12/1/08,59.54485217,15.91987002,15.4,93.59,2976,2976
HOEM,1/1/09,69.28026885,14.25794898,24.39,94.65,2976,2976
HOEM,2/1/09,75.21116819,13.56687126,28.65,100,2688,2688
HOEM,3/1/09,82.93068224,15.66209269,23.41,100,2976,2976
HOEM,4/1/09,72.82592704,22.79925679,25.85,100,2880,2880
HOEM,5/1/09,71.67272173,23.02300889,16.6,100,2976,2976
HOEM,6/1/09,66.98708683,25.37282582,15.52,100,2880,2880
HOEM,7/1/09,74.23504032,24.56900415,17.78,100,2976,2976
HOEM,8/1/09,74.07620634,22.90422598,21.98,100,2976,2976
HOEM,9/1/09,61.42060068,26.58393122,8.78,96.95,2880,2880
HOEM,10/1/09,71.02396173,18.91361574,17.99,100,2976,2976
HOEM,11/1/09,60.76380901,18.8266815,17.78,100,2880,2880
HOEM,12/1/09,69.30689518,13.84647994,27.49,97.26,2976,2976
HOEM,1/1/10,73.72071906,11.44346687,30.66,97.93,2976,2976
HOEM,2/1/10,74.03367188,16.77464758,20.25,100,2688,2688
HOEM,3/1/10,82.65353489,13.36673604,30.49,100,2976,2976
HOEM,4/1/10,76.82960078,22.48214947,19.4,100,2880,2880
HOEM,5/1/10,76.56720093,21.66124455,25.7,100,2976,2976
HOEM,6/1/10,74.37149998,21.02983733,25.98,100,2880,2880
HOEM,7/1/10,69.57490255,22.82858799,19.51,100,2976,2976
HOEM,8/1/10,75.93437833,25.08751498,15.16,99.36,2976,2976
HOEM,9/1/10,78.03076383,21.10186244,18.27,100,2880,2880
HOEM,10/1/10,72.02885079,22.26068501,16.99,100,2976,2976
HOEM,11/1/10,50.75735932,17.55871009,14.27,95.47,2878,2879
HOEM,12/1/10,60.72242096,17.56048127,14.69,98.34,2879,2879
HOEM,1/1/11,77.31066533,13.59681177,30.07,100,2976,2976
HOEM,2/1/11,72.63546509,15.26509102,29.35,100,2688,2688
HOEM,3/1/11,75.35873989,20.14750063,28.25,100,2976,2976
HOEM,4/1/11,77.87281249,22.79669385,19.33,100,2880,2880
HOEM,5/1/11,72.66784609,23.13393364,24.62,100,2976,2976
HOEM,6/1/11,72.64930903,25.3729804,23.72,100,2880,2880
HOEM,7/1/11,66.06280586,26.1939967,18.26,100,2976,2976
HOEM,8/1/11,77.09507392,22.32199096,15.07,100,2976,2976
HOEM,9/1/11,76.88834029,23.35410028,14.25,100,2880,2880
HOEM,10/1/11,71.06109206,22.31466346,13.46,100,2976,2976
HOEM,11/1/11,61.23601946,16.54934925,19.01,98.28,2879,2879
HOEM,12/1/11,65.60562019,15.8570501,19.74,97.52,2975,2976
HOEM,1/1/12,69.83822918,13.57371204,27.13,100,2976,2976
HOEM,2/1/12,61.27775334,14.26893225,24.32,89.34,1135,1135
HOEM,9/1/12,72.27527609,10.84457209,32.19,88.46,163,163
HOEM,10/1/12,73.16631857,15.12545269,28.59,100,1369,1369
HOEM,11/1/12,61.97048625,15.87244502,24.4,100,2879,2879
HOEM,12/1/12,68.09217071,13.61781027,22.3,98.89,2976,2976
HOEM,1/1/13,72.31139782,16.01921543,18.26,100,2976,2976
HOEM,2/1/13,71.34444196,18.3186987,26.31,100,2688,2688
HOEM,3/1/13,84.5302184,17.33832981,28.3,100,2976,2976
HOEM,4/1/13,79.6506458,18.68978273,20.4,100,2880,2880
HOEM,5/1/13,76.45715728,22.73044946,26.74,100,2976,2976
HOEM,6/1/13,77.5421771,21.06034516,22.2,100,2880,2880
HOEM,7/1/13,81.32933804,19.66365808,26.93,100,2976,2976
HOEM,8/1/13,74.95634746,23.49165834,14.88,100,2976,2976
HOEM,9/1/13,70.4799236,27.20494394,12.95,100,2880,2880
HOEM,10/1/13,80.38890316,20.45114776,26.46,100,2972,2972
HOEM,11/1/13,59.77927081,19.63590068,21.79,100,2880,2880
HOEM,12/1/13,64.50158262,16.35077395,21.05,100,2976,2976
HOEM,1/1/14,65.04655914,17.05183684,23.6,100,2976,2976
HOEM,2/1/14,64.62659971,20.20315304,18.64,97.75,2688,2688
HOEM,3/1/14,73.60854504,22.57890738,20.79,100,2976,2976
HOEM,4/1/14,77.93221874,25.42522977,15.15,100,2880,2880
HOEM,5/1/14,80.60924396,23.90702283,21.97,100,2976,2976
HOEM,6/1/14,78.13586106,21.97658464,24.19,100,2880,2880
HOEM,7/1/14,77.68299732,19.47825216,22.81,100,2976,2976
HOEM,8/1/14,68.67539656,26.65783189,21.99,100,2976,2976
HOEM,9/1/14,67.5656389,28.88884125,11.95,100,2880,2880
HOEM,10/1/14,64.67557796,25.14068402,24.66,100,2976,2976
HOEM,11/1/14,68.05662096,14.59658653,18.52,97.09,2702,2702
HOEM,12/1/14,65.57721996,13.24518958,26.08,95.82,2964,2964
HOEM,1/1/15,64.2107858,18.21878939,10.73,98.65,2965,2965
HOEM,2/1/15,60.45487356,22.7033432,15.8,99.24,2688,2688
HOEM,3/1/15,77.02103834,16.76449584,21.03,100,2976,2976
HOEM,4/1/15,82.08913198,19.29032029,20.16,100,2880,2880
HOEM,5/1/15,78.64626004,18.01220973,14.68,100,2976,2976
HOEM,6/1/15,61.44097218,23.52713461,11.25,97.92,2880,2880
HOEM,7/1/15,68.49581994,25.65748583,9.14,100,2976,2976
HOEM,8/1/15,67.33759408,27.29316853,10.37,100,2976,2976
HOEM,9/1/15,66.67168399,25.4211263,12.25,100,2880,2880
HOEM,10/1/15,66.14262096,22.91977542,8,98.99,2976,2976
HOEM,11/1/15,56.10668057,20.16144692,11.99,99.99,2874,2874
HOEM,12/1/15,63.44488232,20.456475,6.76,100,2976,2976
HOEM,1/1/16,64.21997646,20.09455744,7.27,96.53,2976,2976
HOEM,2/1/16,61.0958477,21.5917022,13.75,100,2784,2784
HOEM,3/1/16,75.48329631,20.99404674,17.85,100,2976,2976
HOEM,4/1/16,70.65836108,22.0474948,24.71,100,2880,2880
HOEM,5/1/16,68.33476138,28.06839588,7.9,100,2976,2976
HOEM,6/1/16,81.21523619,19.05626287,20.23,100,2880,2880
HOEM,7/1/16,80.56259414,17.67597377,14.99,100,2976,2976
HOEM,8/1/16,70.68286292,24.40723329,9.71,100,2976,2976
HOEM,9/1/16,78.08929856,22.95737769,17.58,100,2880,2880
HOEM,10/1/16,74.5919729,19.64751354,19.93,100,2960,2960
HOEM,11/1/16,68.69388198,20.10808623,8.67,100,2880,2880
HOEM,12/1/16,67.48120961,17.26977286,13.65,100,2976,2976
HOEM,1/1/17,66.81919691,15.15867679,16.77,100,2976,2976
HOEM,2/1/17,64.07174846,16.82671142,17.82,100,2688,2688
HOEM,3/1/17,81.553871,21.19218632,17.22,100,2976,2976
HOEM,4/1/17,57.81036464,25.11162241,15.82,100,2880,2880
HOEM,5/1/17,66.14406249,28.41364067,14.03,100,2976,2976
HOEM,6/1/17,68.35792013,25.23267893,17.5,100,2880,2880
HOEM,7/1/17,61.95964048,28.05208756,10.94,100,2976,2976
HOEM,8/1/17,63.94643811,25.77049568,9.01,100,2976,2976
HOEM,9/1/17,67.0510139,25.69232875,12.68,100,2880,2880
HOEM,10/1/17,71.74352147,23.98132456,13.57,100,2976,2976
HOEM,11/1/17,68.11537151,20.23623895,9.24,100,2867,2867
HOEM,12/1/17,68.2944437,15.65681233,18.77,100,2975,2975
HOEM,1/1/18,69.07387827,15.41211418,21.49,100,2973,2974
HOEM,2/1/18,67.90959816,20.00970254,14.69,100,2688,2688
HOEM,3/1/18,77.12031923,23.4279352,23.24,100,2976,2976
HOEM,4/1/18,67.46080203,28.26005565,8.04,100,2880,2880
HOEM,5/1/18,74.14199256,21.59894165,16.68,100,2976,2976
HOEM,6/1/18,65.29016321,29.32121356,19.61,100,2880,2880
HOEM,7/1/18,64.84066872,28.23922334,9.84,100,2976,2976
HOEM,8/1/18,74.91121979,23.71002041,7.05,100,2976,2976
HOEM,9/1/18,71.55145486,26.72322213,15.17,100,2880,2880
HOEM,10/1/18,62.60740262,26.83582033,14.1,100,2976,2976
HOEM,11/1/18,59.54080552,20.19477638,14.76,100,2880,2880
HOEM,12/1/18,58.36130473,20.166548,12.93,100,2974,1584
HOEM,1/1/19,71.41280912,14.33175448,20.09,99.06,2976,0
HOEM,2/1/19,67.37407361,21.59568293,18.99,100,2688,52
HOEM,3/1/19,78.49813169,22.1382042,17.2,100,2976,271
HOEM,4/1/19,67.53318409,26.42569561,15.59,100,2880,75
HOEM,5/1/19,67.55777221,27.61180108,21.63,100,2976,174
HOEM,6/1/19,63.49468399,27.23301334,13.44,100,2880,42
HOEM,7/1/19,74.33106858,29.52870739,9.31,100,2976,213
HOEM,8/1/19,63.95255711,26.85970752,10.9,100,2976,67
HOEM,9/1/19,59.143684,27.16790678,13.87,100,2880,1
HOEM,10/1/19,61.8207124,21.89518527,13.69,99.11,2976,0
HOEM,11/1/19,62.80056251,18.28178245,19.05,100,2880,2
HOEM,12/1/19,65.74857432,17.6690454,18.76,99.05,2960,708
HOEM,1/1/20,72.02047713,14.39331982,22.28,99.25,2976,2976
HOEM,2/1/20,73.86292744,20.35457519,22.4,100,2784,2784
HOEM,3/1/20,73.75937502,24.90199694,19.36,100,2976,2976
HOEM,4/1/20,65.4654479,26.69199809,16.92,100,2880,2880
HOEM,5/1/20,70.26788309,26.93251744,14.04,100,2976,2976
HOEM,6/1/20,67.6511979,27.4516197,12.89,99.79,2880,2880
HOEM,7/1/20,72.221996,25.49507085,12.17,100,2976,2976
HOEM,8/1/20,77.58354167,23.21030295,21.43,100,2976,2976
HOEM,9/1/20,76.0712222,21.27568052,21.98,100,2880,2880
HOEM,10/1/20,59.05684812,25.05606448,14.54,100,2976,2976
HOEM,11/1/20,59.42432987,17.01036482,16.45,98.56,2880,2880
HOEM,12/1/20,57.94813172,15.6901506,13.32,92.24,2976,2976
HOEM,1/1/21,62.36961691,18.06034775,10.55,99.96,2976,2976
HOEM,2/1/21,71.06506697,21.5779137,7.98,100,2688,2688
HOEM,3/1/21,79.59068208,22.40250438,16.86,100,2976,2976
HOEM,4/1/21,78.32487845,19.60805824,23.27,100,2880,2880
HOEM,5/1/21,68.83497313,25.11084569,15.56,100,2976,2976
HOEM,6/1/21,66.88208336,30.38261492,15.27,100,2880,2880
HOEM,7/1/21,72.16782926,25.0305153,18.7,100,2976,2976
HOEM,8/1/21,70.98018478,24.70701059,8.45,100,2976,2976
HOEM,9/1/21,66.50813545,29.68762023,12.43,100,2880,2880
HOEM,10/1/21,58.62876676,25.03667243,12.7,100,2976,2976
HOEM,11/1/21,59.2428621,17.84346165,17.08,97.34,2872,2872
HOEM,12/1/21,51.24524211,18.61867647,12.73,96.83,2974,2974
HOEM,1/1/22,63.80740253,14.77207522,14.2,98.08,2976,2976
HOEM,2/1/22,67.1566332,18.69801913,19.52,99.83,2688,2688
HOEM,3/1/22,67.10193548,26.00122032,10.65,100,2976,2976
HOEM,4/1/22,75.70916319,23.97337638,17.07,100,2880,2880
HOEM,5/1/22,62.50533262,30.63872405,9.57,100,2976,2976
HOEM,6/1/22,71.13885061,24.46692992,18.43,100,2880,2880
HOEM,7/1/22,52.61651209,30.8464185,8.47,100,2976,2976
HOEM,8/1/22,64.09323925,26.7590385,10.17,98.48,2976,2976
HOEM,9/1/22,69.83053469,26.82472275,18.48,100,2880,2880
HOEM,10/1/22,60.5854268,24.1412097,11.97,100,2976,2976
HOEM,11/1/22,68.32091301,16.5574097,10.63,100,2059,2059